Location: Bednik
(45.3500°N, 16.3833°E)
Time: 03:17:07
(UTC+00:00)

Meteor 1-4 Rocket - Pass Details

Date: 08 August 2020
Orbit: 449 x 502 km, 81.2° (Epoch: 25 September)

Event Time Altitude Azimuth Distance (km) Brightness Sun altitude
Rises 20:15:18 0° 344° (NNW) 2,487 7.3 -18.4°
Reaches altitude 10° 20:17:25 10° 340° (NNW) 1,602 6.2 -18.6°
Maximum altitude 20:20:49 51° 263° (W) 576 3.1 -19.0°
Enters shadow 20:21:53 36° 210° (SSW) 739 3.3 -19.1°
